[[{"header":{"parameterUnit":"m.s-1","parameterCategory":1,"la1":30.2992,"la2":30.254,"lo1":-89.0895,"lo2":-89.0443,"dy":0.0025,"dx":0.0025,"nx":19,"ny":19,"refTime":"2026-05-17T09:00:00:Z","depth":0,"parameterNumber":2,"parameterNumberName":"U-component_of_WINDS"},"data":[0,0,0,-4.5432,-4.5434,-4.5541,-4.5542,-4.5693,-4.5694,0,0,0,0,0,0,0,0,0,0,0,-4.5409,-4.541,-4.5431,-4.5434,-4.5541,-4.5542,-4.5692,-4.5694,0,0,0,0,0,0,0,0,0,0,0,-4.5408,-4.541,-4.5412,-4.5435,-4.5541,-4.5542,-4.5692,-4.5606,0,0,0,0,0,0,0,0,0,0,-4.5499,-4.5488,-4.5409,-4.5412,-4.5435,-4.5541,-4.5542,-4.5602,-4.5611,-4.565,0,-4.5688,0,-4.5694,-4.5705,-4.5706,0,0,0,-4.5427,-4.548,-4.55,-4.5412,-4.5437,-4.5541,-4.5491,-4.5607,-4.5618,-4.5663,-4.569,-4.5695,-4.5696,-4.5706,-4.5707,-4.5956,-4.5957,0,0,-4.5421,-4.5433,-4.5493,-4.5508,-4.5493,-4.5488,-4.5495,-4.5613,-4.5643,-4.569,-4.5698,-4.5699,-4.5707,-4.5709,-4.5955,-4.5956,0,0,0,-4.5409,-4.5429,-4.5447,-4.5502,-4.5521,-4.5491,-4.5499,-4.5637,-4.5642,-4.57,-4.57,-4.5708,-4.571,-4.5953,-4.5955,-4.6039,0,0,0,-4.5405,-4.5422,-4.5444,-4.5452,-4.5519,-4.5581,-4.5521,-4.5634,-4.5647,-4.57,-4.5708,-4.5712,-4.5951,-4.5954,-4.6033,-4.6076,0,0,0,-4.5399,-4.5421,-4.544,-4.5453,-4.55,-4.5578,-4.559,-4.5637,-4.5648,-4.5706,-4.5712,-4.595,-4.5954,-4.6028,-4.6068,-4.6144,0,0,0,-4.5395,-4.5513,-4.5441,-4.5573,-4.5499,-4.5631,-4.5589,-4.5686,-4.5746,-4.5709,-4.5951,-4.5955,-4.6027,-4.6062,-4.6139,-4.6209,-4.624,0,0,-4.555,-4.5532,-4.5609,-4.5548,-4.5695,-4.5613,-4.5773,-4.5816,-4.5811,-4.5908,-4.5914,-4.6035,-4.6067,-4.6143,-4.6414,-4.6438,0,0,0,-4.5662,-4.5717,-4.5754,-4.5812,-4.5849,-4.5883,-4.5902,-4.5918,-4.6,-4.5864,-4.6084,-4.6103,-4.6147,-4.618,-4.6201,-4.6237,-4.5971,-4.5971,-4.5971,-4.5897,-4.5885,-4.6011,-4.6012,-4.6069,-4.6087,-4.6131,-4.6156,-4.6127,-4.6179,-4.6207,-4.6373,-4.6412,-4.6428,-4.6466,-4.6245,-4.6245,-4.6246,-4.6246,-4.6121,-4.6197,-4.6157,-4.6264,-4.625,-4.634,-4.6363,-4.6339,-4.642,-4.6351,-4.6389,-4.6312,-4.6455,-4.6488,-4.6252,-4.6251,-4.625,-4.625,-4.6249,-4.6272,-4.6306,-4.6325,-4.6407,-4.6472,-4.6469,-4.6549,-4.6534,-4.6521,-4.6559,-4.6586,-4.6584,-4.6579,-4.6573,-4.6574,-4.6574,-4.6575,-4.6575,-4.6576,-4.642,-4.6438,-4.6508,-4.6558,-4.6593,-4.6637,-4.6658,-4.6692,-4.6725,-4.6708,-4.6708,-4.6673,-4.6473,-4.6421,-4.6584,-4.6583,-4.6582,-4.6581,-4.658,-4.6649,-4.6595,-4.6702,-4.6737,-4.6794,-4.686,-4.684,-4.6911,-4.6937,-4.6977,-4.6935,-4.679,-4.6769,-4.6753,-4.671,-4.6938,-4.6938,-4.6938,-4.6938,-4.6774,-4.6763,-4.6869,-4.6927,-4.6982,-4.6975,-4.7096,-4.7113,-4.7122,-4.7138,-4.7103,-4.7046,-4.703,-4.7019,-4.6996,-4.6956,-4.7242,-4.7242,-4.7242,-4.6913,-4.6907,-4.7013,-4.7022,-4.7066,-4.7103,-4.7216,-4.7283,-4.7282,-4.7254,-4.7149,-4.7136,-4.7044,-4.7015,-4.6981,-4.6947,-4.6873,0,0]},{"header":{"parameterUnit":"m.s-1","parameterCategory":1,"la1":30.2992,"la2":30.254,"lo1":-89.0895,"lo2":-89.0443,"dy":0.0025,"dx":0.0025,"nx":19,"ny":19,"refTime":"2026-05-17T09:00:00:Z","depth":0,"parameterNumber":3,"parameterNumberName":"V-component_of_WINDS"},"data":[0,0,0,2.7774,2.7775,2.781,2.781,2.7857,2.7857,0,0,0,0,0,0,0,0,0,0,0,2.7764,2.7764,2.7774,2.7775,2.781,2.781,2.7856,2.7857,0,0,0,0,0,0,0,0,0,0,0,2.7764,2.7764,2.7765,2.7775,2.781,2.781,2.7856,2.7829,0,0,0,0,0,0,0,0,0,0,2.7795,2.7786,2.7764,2.7765,2.7775,2.781,2.781,2.7828,2.7831,2.7841,0,2.785,0,2.7854,2.786,2.786,0,0,0,2.7774,2.7783,2.7793,2.7765,2.7775,2.781,2.7794,2.783,2.7833,2.7845,2.7851,2.7852,2.7855,2.786,2.7861,2.7921,2.7922,0,0,2.7772,2.777,2.779,2.7795,2.7789,2.7793,2.7795,2.7832,2.7837,2.7851,2.7853,2.7856,2.7861,2.7861,2.7921,2.7921,0,0,0,2.7767,2.7769,2.7777,2.7793,2.7799,2.7794,2.7796,2.7836,2.7839,2.7854,2.7856,2.7861,2.7862,2.7921,2.7921,2.7935,0,0,0,2.7766,2.7766,2.7776,2.7776,2.7799,2.7818,2.78,2.7836,2.784,2.7856,2.7861,2.7862,2.792,2.7921,2.7934,2.7941,0,0,0,2.7761,2.7765,2.7771,2.7775,2.7791,2.7817,2.7822,2.7837,2.7842,2.786,2.7862,2.792,2.7921,2.7933,2.794,2.7958,0,0,0,2.7756,2.7781,2.7771,2.78,2.779,2.7826,2.7822,2.7849,2.7866,2.7861,2.792,2.7921,2.7933,2.7939,2.7957,2.7972,2.7979,0,0,2.7786,2.7785,2.7802,2.7794,2.7831,2.7821,2.786,2.7877,2.788,2.7908,2.7909,2.7934,2.794,2.7957,2.8015,2.802,0,0,0,2.7811,2.7824,2.7834,2.7851,2.7866,2.788,2.7892,2.7898,2.7922,2.7894,2.7945,2.7949,2.7959,2.7967,2.7971,2.7981,2.7925,2.7924,2.7924,2.7851,2.7855,2.7885,2.7894,2.7911,2.7924,2.7939,2.795,2.7948,2.796,2.7968,2.8003,2.8011,2.8015,2.8025,2.7977,2.7977,2.7977,2.7977,2.7897,2.7916,2.7915,2.7944,2.7949,2.7973,2.7987,2.7986,2.8009,2.7996,2.8006,2.7991,2.802,2.8029,2.7978,2.7978,2.7978,2.7978,2.7978,2.7923,2.7933,2.7942,2.7969,2.7989,2.7997,2.8021,2.8024,2.8027,2.8036,2.8046,2.8046,2.8046,2.8041,2.8041,2.8041,2.8041,2.8041,2.8041,2.7946,2.7956,2.7976,2.7996,2.8008,2.8025,2.8041,2.8053,2.8068,2.8068,2.8068,2.8066,2.8022,2.8011,2.8043,2.8043,2.8043,2.8042,2.8042,2.7991,2.7982,2.8012,2.8025,2.805,2.8071,2.8075,2.8101,2.8112,2.8123,2.812,2.8087,2.8085,2.8082,2.8072,2.8118,2.8118,2.8118,2.8118,2.8013,2.8013,2.8046,2.8067,2.8087,2.8095,2.813,2.8144,2.8155,2.8163,2.8157,2.8145,2.8142,2.8142,2.8137,2.8129,2.8188,2.8188,2.8188,2.8041,2.8044,2.8072,2.8085,2.8105,2.8123,2.8157,2.8181,2.8192,2.8191,2.8169,2.8166,2.8147,2.8141,2.8138,2.813,2.8115,0,0]}]]